Wetbulb
54.33 54.35 54.57 54.58 54.59 54.60 54.76 54.90 55.23 55.59 56.29 56.61 56.94 57.13 57.31 57.16 56.54 51.89 47.85 53.84 55.42 61.06 60.85 52.21 50.91 50.71 51.25 49.41 51.13 52.91 44.47 45.80 47.69 48.56 50.58 54.80 52.45 55.71 56.47 53.03 54.28 56.12 56.96 63.81 66.34
54.13 54.36 54.44 54.41 54.46 54.38 54.58 54.66 54.99 55.44 55.98 56.36 56.76 56.96 56.91 57.13 51.95 49.78 57.97 61.45 62.02 60.79 51.77 49.38 48.79 49.27 45.77 46.94 46.93 47.24 43.32 45.38 52.26 53.01 51.79 53.71 53.53 54.36 54.41 52.43 52.85 54.79 59.42 64.82 65.34
53.86 54.05 54.13 54.10 54.28 54.12 54.31 54.57 54.82 55.22 55.75 56.05 56.40 56.40 56.72 56.30 49.46 49.58 61.55 62.85 61.62 58.61 53.42 51.84 50.96 47.56 44.19 46.23 46.40 47.03 44.72 49.10 50.89 53.30 54.44 54.16 54.63 56.53 54.89 51.15 52.04 52.62 55.07 61.53 63.42
53.42 53.64 53.83 53.67 53.92 53.93 54.01 54.51 54.69 55.07 55.31 55.65 55.99 56.40 57.28 53.53 41.54 52.79 61.84 63.70 62.69 58.15 54.15 51.22 47.56 41.29 40.46 41.92 46.09 42.84 47.52 50.27 50.78 52.66 52.49 51.58 54.30 53.66 54.61 54.48 55.51 55.74 57.08 57.49 58.99
53.47 53.40 53.40 53.25 53.37 53.66 53.96 54.25 54.41 54.58 54.98 55.20 55.64 56.59 53.49 49.28 49.93 54.44 63.35 63.39 58.96 55.47 52.80 50.02 44.19 41.86 39.39 43.18 44.78 43.51 45.92 48.14 50.72 52.47 52.48 53.56 51.89 52.07 52.97 56.39 58.27 57.92 57.65 56.57 56.93
53.65 53.59 53.58 53.48 53.26 53.36 53.63 53.99 54.15 54.30 54.60 55.12 55.75 56.69 51.71 45.26 51.93 55.58 59.40 55.63 55.06 51.63 48.36 47.91 45.10 46.63 42.53 41.61 40.22 43.20 44.64 46.02 47.69 48.16 49.13 50.05 51.56 52.59 53.51 56.14 57.16 57.16 56.37 56.70 56.33
54.07 53.58 53.31 53.31 53.52 53.32 53.79 53.76 53.84 54.05 54.65 55.55 56.40 55.11 49.06 46.41 51.88 51.14 51.24 47.38 49.71 51.10 49.07 49.83 49.38 46.10 44.66 41.58 44.85 44.33 40.32 43.54 45.35 46.59 47.12 49.19 46.29 48.46 53.30 55.08 54.85 56.62 56.79 56.66 56.28
53.41 53.12 53.00 52.82 53.04 53.39 53.44 53.96 53.76 53.88 54.96 56.98 56.78 52.19 45.44 55.16 50.49 50.30 49.61 49.03 50.53 50.72 50.02 49.81 49.83 45.72 42.83 44.77 43.64 39.86 39.84 34.15 40.29 45.26 46.96 45.99 40.83 47.89 50.81 52.29 53.21 55.41 56.58 57.24 56.96
53.19 52.65 52.67 53.10 53.46 53.17 53.45 53.25 53.51 54.39 56.04 57.47 51.73 48.56 45.54 54.79 50.03 51.42 50.35 49.43 49.71 50.03 50.28 52.09 47.48 43.36 43.35 38.45 34.86 36.77 31.70 34.11 37.98 43.12 43.83 43.59 42.09 47.65 50.17 50.83 51.08 52.88 55.09 56.65 56.98
52.63 52.75 52.29 52.81 53.00 53.33 53.11 53.25 54.08 53.93 54.77 55.02 54.06 46.45 50.78 48.99 49.84 52.05 51.18 51.58 48.45 47.86 47.78 46.62 43.09 39.27 37.90 35.64 27.91 32.61 33.79 37.04 37.09 40.33 41.88 40.47 41.10 46.01 49.13 49.53 49.99 50.65 52.45 55.48 56.39
53.21 53.00 52.46 52.27 53.18 52.94 50.83 49.15 47.46 46.31 48.25 48.13 49.82 49.24 48.80 50.02 51.79 49.57 52.34 49.97 48.06 44.98 38.60 42.16 36.38 33.21 37.77 40.10 40.90 39.97 38.80 37.84 40.73 43.50 40.89 39.78 40.67 43.19 45.82 46.13 47.94 49.73 50.57 52.05 55.11
52.83 53.00 52.92 53.08 53.37 52.80 48.99 46.03 47.61 46.78 41.35 48.69 49.13 48.52 50.21 49.18 45.12 48.20 52.28 44.73 43.39 37.88 41.02 37.99 33.87 40.60 42.60 41.73 40.29 38.92 36.68 36.49 40.63 43.38 41.27 39.98 39.40 42.53 44.16 45.09 46.74 48.10 49.97 50.85 53.29
52.69 52.40 52.67 53.03 52.50 49.75 47.87 51.53 51.92 50.47 39.95 45.30 49.34 47.79 47.68 47.89 45.18 45.65 48.45 45.23 41.09 38.41 38.57 35.06 38.56 43.10 41.18 38.98 37.96 37.45 35.92 36.33 36.62 40.58 41.68 39.64 37.07 39.55 43.33 44.95 46.81 48.40 49.82 50.96 51.72
52.18 51.87 52.24 52.06 49.31 50.46 50.04 52.45 51.63 50.71 34.25 42.58 44.31 46.30 47.43 46.74 43.29 49.49 49.66 45.23 41.49 37.67 38.94 37.40 41.38 40.53 39.02 38.16 39.23 34.08 40.56 40.15 38.93 36.15 30.07 38.84 28.73 36.64 40.37 41.62 44.26 46.33 47.81 48.43 49.81
51.76 51.78 51.80 51.27 46.72 47.55 50.38 51.64 51.21 47.63 27.78 43.98 43.82 49.63 46.89 43.13 45.29 46.68 49.55 45.53 39.77 39.74 39.02 36.39 38.61 37.92 37.31 39.09 41.65 37.35 42.25 39.91 39.19 35.55 34.13 34.63 29.56 34.73 39.34 39.38 41.36 43.72 45.94 48.11 49.74
51.07 51.38 51.28 51.27 49.01 50.88 53.54 51.93 49.45 36.61 29.28 39.47 44.30 42.92 41.88 44.26 45.04 47.08 46.34 47.18 45.49 40.98 40.90 39.20 42.95 42.18 40.59 42.68 42.97 42.10 39.15 38.30 37.58 33.87 27.05 33.12 32.37 32.81 35.64 38.83 41.67 44.12 46.19 47.82 49.38
50.67 50.36 49.17 51.34 48.35 53.88 52.88 48.08 35.22 31.52 44.01 39.11 39.79 42.23 40.65 40.27 42.69 43.97 42.26 38.98 35.27 31.84 31.29 36.90 37.66 40.87 43.66 38.03 40.18 38.16 32.23 27.36 22.29 22.37 24.30 35.15 32.64 34.22 38.74 41.94 43.41 43.83 45.48 47.30 48.08
49.72 49.32 51.08 51.24 51.43 52.15 49.23 40.20 29.91 40.14 39.04 43.00 40.85 40.73 38.61 41.76 41.22 41.70 39.64 35.94 42.03 37.88 31.43 27.60 27.55 37.51 42.68 38.49 34.68 34.24 33.73 25.18 20.20 23.11 25.88 33.46 28.98 33.53 41.50 43.31 45.53 46.74 46.54 47.44 48.28
48.95 50.53 51.00 53.11 54.28 52.40 43.79 33.69 35.54 39.68 41.20 39.17 39.40 37.25 38.06 40.95 39.91 39.39 37.70 38.44 40.12 39.52 31.17 29.45 31.08 40.96 41.59 41.71 40.32 34.09 31.37 38.13 29.76 31.17 26.51 29.27 34.23 39.16 42.28 42.23 43.05 43.18 45.05 44.47 45.27
45.55 48.37 50.57 55.25 53.95 48.01 37.89 36.84 40.42 42.83 42.09 40.58 33.63 38.68 34.48 36.83 36.52 36.36 36.57 41.29 40.34 42.50 41.63 36.15 29.45 38.92 40.35 41.87 41.00 36.15 38.39 27.50 31.16 22.73 20.83 27.19 29.18 30.95 37.36 38.15 40.69 41.02 42.56 44.94 47.70
46.05 46.05 51.01 53.70 50.98 42.69 34.64 38.22 42.12 44.67 43.68 39.72 37.29 36.47 37.16 35.77 36.02 35.15 36.39 40.01 42.62 41.26 41.20 37.15 32.85 33.49 37.89 35.44 33.42 35.37 33.02 33.89 32.44 29.55 23.70 21.03 25.84 41.35 38.18 38.92 39.15 40.91 43.44 44.96 47.62
45.77 40.68 51.53 50.78 38.03 41.97 37.84 41.68 43.93 43.50 44.77 42.53 42.50 40.70 37.97 37.51 35.19 34.93 34.89 39.51 44.26 42.94 37.10 38.11 33.70 28.85 32.01 38.97 41.17 39.32 36.35 33.49 28.24 27.25 29.79 28.12 27.67 41.49 39.83 40.98 41.61 41.97 44.18 45.29 47.78
42.55 44.49 52.02 49.68 35.89 35.55 41.00 41.61 43.14 42.71 42.22 40.66 39.71 41.36 40.17 35.97 32.05 37.68 38.20 43.51 43.95 41.27 38.20 37.94 31.80 26.43 28.21 33.55 36.94 33.90 35.82 35.17 34.36 32.30 27.79 25.31 27.82 43.15 41.65 41.32 42.32 41.97 44.53 46.38 47.80
44.17 39.43 44.71 44.29 43.07 39.18 37.99 38.58 38.26 44.75 43.69 42.97 41.03 41.34 38.76 36.02 37.69 36.22 36.74 41.41 43.94 42.59 43.89 40.57 34.84 30.24 25.46 29.11 32.56 31.25 33.95 36.04 34.42 26.58 29.40 30.81 33.27 38.20 39.72 40.48 42.29 43.98 45.19 46.24 46.68
44.24 40.42 41.35 35.47 36.09 38.30 39.61 39.93 38.41 37.67 42.74 42.00 38.62 38.00 36.62 31.76 34.29 33.94 37.06 38.77 41.55 44.17 42.52 39.70 32.70 33.97 34.87 36.05 36.21 35.10 34.58 35.88 33.18 33.86 29.74 32.88 34.24 37.01 39.61 41.40 43.21 44.76 45.65 46.12 46.32
38.92 37.01 39.15 36.37 40.31 39.14 39.54 38.63 37.67 38.72 38.66 36.63 36.17 38.55 37.24 32.96 34.39 32.78 35.69 36.18 35.30 40.27 36.80 40.16 33.00 34.93 32.01 36.01 36.25 34.38 35.85 35.96 36.65 37.33 36.10 36.42 35.71 42.43 42.46 43.35 42.64 44.35 45.02 45.43 46.40
44.39 44.11 40.74 37.03 37.84 35.82 35.37 37.66 38.22 38.81 40.31 41.34 39.30 36.52 35.30 37.40 40.43 41.17 41.02 40.73 39.73 37.56 36.34 33.12 33.55 31.61 26.17 35.34 34.50 27.81 35.02 36.67 37.26 37.99 36.93 32.31 36.91 42.80 42.83 42.98 42.72 43.58 44.79 45.14 47.15
MSLP
1020.02 1019.61 1019.22 1018.81 1018.41 1018.09 1017.76 1017.34 1016.91 1016.50 1016.14 1015.82 1015.51 1015.27 1015.00 1014.57 1013.96 1013.11 1012.36 1011.16 1010.85 1010.69 1010.63 1009.99 1009.37 1009.33 1009.33 1009.16 1008.83 1008.52 1008.57 1007.50 1006.85 1005.93 1003.94 1002.53 1001.90 1000.37 999.71 999.34 998.25 998.17 998.28 998.57 999.12
1019.97 1019.50 1019.04 1018.64 1018.27 1017.91 1017.54 1017.17 1016.76 1016.36 1015.98 1015.60 1015.26 1014.99 1014.73 1014.36 1013.72 1012.28 1010.80 1010.49 1010.54 1010.71 1010.53 1009.93 1009.45 1009.23 1009.12 1008.72 1008.80 1008.42 1007.58 1006.49 1005.74 1005.04 1004.18 1003.16 1002.13 1000.69 1000.28 999.64 999.15 998.58 998.44 998.20 998.63
1019.95 1019.45 1018.96 1018.49 1018.10 1017.77 1017.45 1017.08 1016.67 1016.23 1015.79 1015.39 1015.02 1014.72 1014.47 1014.20 1013.06 1010.74 1010.20 1010.23 1010.08 1010.20 1010.15 1009.92 1009.48 1009.15 1008.74 1008.53 1008.18 1007.65 1006.46 1006.39 1005.67 1004.99 1004.32 1003.28 1002.21 1001.35 1000.91 1000.52 999.75 999.24 999.65 999.63 998.94
1019.94 1019.37 1018.83 1018.37 1017.95 1017.55 1017.17 1016.76 1016.36 1015.96 1015.60 1015.27 1014.93 1014.55 1014.02 1014.00 1012.20 1009.97 1009.82 1009.66 1009.51 1009.93 1010.09 1009.52 1009.15 1009.11 1008.83 1008.41 1007.72 1007.25 1006.61 1006.17 1005.61 1005.20 1004.46 1003.32 1002.70 1001.72 1001.33 1001.08 999.98 999.29 999.68 1000.27 1000.81
1019.85 1019.26 1018.72 1018.20 1017.70 1017.22 1016.77 1016.37 1016.04 1015.69 1015.32 1015.02 1014.76 1014.46 1013.76 1012.81 1010.36 1009.06 1009.20 1009.10 1009.30 1009.72 1009.51 1009.11 1008.64 1008.62 1008.50 1007.97 1007.65 1006.91 1006.33 1005.67 1004.91 1004.39 1003.89 1003.15 1002.32 1001.83 1000.93 1000.77 1000.27 999.45 999.54 999.95 1000.40
1019.65 1019.10 1018.53 1017.97 1017.44 1016.96 1016.53 1016.12 1015.66 1015.27 1014.93 1014.72 1014.57 1014.41 1013.94 1011.54 1008.00 1008.36 1008.64 1008.69 1008.70 1008.62 1008.54 1008.36 1008.35 1008.23 1008.11 1007.98 1007.90 1007.15 1006.38 1005.42 1004.68 1003.93 1003.37 1002.83 1002.02 1001.48 1000.32 1000.47 1000.32 999.70 999.75 999.92 1000.45
1019.55 1018.95 1018.30 1017.69 1017.09 1016.53 1016.02 1015.64 1015.27 1014.90 1014.51 1014.25 1014.19 1014.03 1012.79 1010.07 1007.85 1007.74 1008.02 1007.97 1007.75 1007.76 1008.02 1008.10 1008.16 1008.64 1008.62 1008.50 1007.64 1007.32 1006.82 1005.56 1004.53 1003.79 1003.05 1002.96 1001.74 1000.81 1000.50 1000.27 1000.09 999.85 999.69 999.78 1000.16
1019.45 1018.86 1018.21 1017.50 1016.81 1016.19 1015.60 1015.11 1014.69 1014.21 1013.85 1013.73 1013.71 1013.50 1011.34 1008.18 1007.80 1007.78 1007.78 1007.85 1007.51 1007.51 1007.69 1007.69 1007.74 1008.36 1008.77 1008.69 1008.30 1008.02 1007.15 1006.13 1004.45 1003.96 1002.93 1003.68 1001.59 1000.57 1000.49 1000.32 999.92 999.78 999.35 999.24 999.85
1019.24 1018.62 1017.96 1017.22 1016.48 1015.79 1015.16 1014.58 1014.02 1013.53 1013.33 1013.25 1013.42 1012.82 1009.84 1007.85 1007.73 1007.58 1007.80 1007.66 1007.59 1007.52 1007.32 1007.18 1007.42 1008.18 1008.63 1008.77 1008.70 1007.99 1007.24 1006.27 1004.75 1004.27 1003.59 1003.19 1001.81 1000.54 1000.63 1000.49 999.98 999.66 999.50 998.87 999.02
1019.03 1018.35 1017.60 1016.84 1016.11 1015.44 1014.70 1013.58 1012.72 1013.20 1012.48 1012.55 1012.09 1011.85 1009.15 1007.61 1007.27 1007.42 1007.33 1007.32 1007.49 1007.40 1007.24 1007.02 1007.53 1008.04 1008.25 1008.69 1008.38 1007.63 1006.63 1005.63 1004.42 1004.11 1003.54 1003.12 1002.06 1000.78 1000.41 1000.16 999.91 999.42 999.29 999.04 998.50
1018.72 1017.91 1017.18 1016.45 1015.71 1015.27 1014.62 1013.13 1012.85 1012.98 1012.19 1011.07 1010.13 1009.13 1007.84 1007.18 1006.98 1007.18 1007.00 1007.37 1007.37 1007.55 1007.72 1007.31 1007.60 1008.03 1007.66 1007.29 1007.12 1006.80 1006.19 1005.44 1004.43 1004.25 1003.93 1003.56 1002.39 1001.33 1001.12 1000.52 999.90 998.82 998.81 998.59 998.33
1018.52 1017.65 1016.81 1015.93 1015.23 1014.92 1015.00 1013.71 1011.59 1011.33 1010.31 1009.59 1008.73 1008.19 1007.42 1007.34 1007.40 1007.05 1006.75 1007.40 1007.71 1008.12 1007.96 1007.89 1007.68 1007.27 1007.03 1006.76 1006.68 1006.53 1006.09 1005.48 1004.59 1004.55 1004.35 1003.57 1002.62 1001.60 1001.24 1000.69 1000.05 999.44 998.51 997.89 997.87
1018.28 1017.36 1016.48 1015.39 1014.57 1014.12 1013.44 1011.89 1010.52 1010.56 1010.74 1008.24 1006.99 1007.07 1006.90 1007.16 1007.07 1006.87 1006.95 1007.37 1007.87 1008.17 1008.25 1008.31 1007.91 1007.23 1006.98 1006.80 1006.76 1006.56 1006.31 1005.84 1005.32 1004.97 1004.64 1004.17 1003.39 1001.83 1000.64 1000.39 999.87 999.11 998.61 998.00 997.75
1017.91 1017.03 1016.32 1015.31 1014.44 1013.07 1012.17 1010.80 1010.50 1010.74 1010.59 1007.94 1007.01 1006.71 1006.75 1006.86 1006.72 1006.28 1006.58 1007.37 1007.82 1008.13 1008.24 1008.10 1007.63 1007.24 1007.00 1006.98 1006.94 1006.57 1006.54 1006.10 1005.90 1005.61 1005.20 1004.94 1003.05 1002.80 1001.30 1000.18 1000.01 999.14 998.49 997.71 997.33
1017.65 1016.84 1015.86 1015.93 1014.97 1013.21 1011.22 1010.65 1010.63 1011.02 1009.74 1007.29 1006.79 1006.69 1006.45 1006.82 1006.26 1005.72 1006.07 1006.64 1007.29 1007.62 1008.00 1007.79 1007.20 1006.99 1007.00 1007.33 1007.58 1007.20 1007.17 1007.04 1006.78 1006.40 1006.04 1005.17 1004.49 1001.85 1001.83 1000.37 1000.02 999.20 998.41 997.72 997.07
1017.31 1016.53 1016.05 1014.50 1014.61 1012.43 1011.31 1010.84 1010.95 1011.24 1008.70 1007.04 1006.49 1006.37 1006.56 1006.18 1005.83 1005.53 1005.68 1005.88 1006.19 1006.80 1007.08 1007.01 1006.58 1006.94 1007.44 1007.68 1008.05 1008.08 1007.92 1007.38 1007.31 1007.16 1006.42 1005.36 1004.92 1002.08 1002.18 1001.19 999.83 999.34 998.47 997.50 996.95
1016.82 1015.68 1015.74 1014.67 1013.36 1011.96 1011.29 1011.30 1011.44 1010.12 1007.40 1007.51 1007.09 1006.79 1006.88 1006.44 1005.81 1005.55 1005.79 1006.10 1006.43 1006.74 1007.17 1007.29 1007.35 1007.13 1007.56 1008.09 1008.21 1008.24 1008.91 1009.18 1008.74 1007.87 1006.22 1005.52 1004.75 1002.72 1001.40 1000.66 1000.06 999.64 998.75 997.70 997.02
1016.48 1014.80 1013.91 1013.46 1012.69 1012.29 1011.90 1011.88 1011.27 1009.31 1008.59 1008.30 1008.16 1007.71 1007.34 1006.47 1006.03 1006.11 1006.17 1006.40 1006.47 1007.09 1007.74 1007.88 1007.77 1007.62 1007.72 1007.92 1007.89 1008.06 1009.01 1010.20 1009.66 1008.78 1008.11 1006.68 1004.31 1002.26 1001.40 1000.76 1001.29 1000.44 999.47 998.10 997.34
1016.23 1014.14 1013.49 1012.73 1012.44 1012.22 1012.64 1011.98 1010.93 1009.64 1009.07 1008.93 1008.63 1008.23 1007.63 1007.30 1007.55 1007.27 1007.02 1007.13 1007.29 1007.80 1008.69 1008.65 1007.89 1007.71 1007.62 1007.26 1007.64 1007.78 1009.03 1009.56 1010.28 1009.79 1009.10 1006.37 1004.22 1002.54 1002.63 1002.80 1002.58 1002.09 1000.89 999.95 998.66
1016.74 1014.64 1012.86 1012.11 1012.25 1012.67 1012.98 1011.98 1010.62 1009.94 1009.64 1009.60 1009.71 1009.35 1009.32 1009.10 1008.93 1008.56 1008.08 1007.70 1007.87 1008.43 1009.19 1009.48 1008.42 1008.24 1007.55 1007.53 1007.35 1007.66 1008.11 1009.54 1010.27 1009.97 1008.67 1006.82 1005.49 1004.43 1004.29 1003.85 1003.49 1002.61 1002.05 1000.52 998.58
1016.20 1014.34 1012.69 1012.12 1012.42 1013.07 1013.04 1011.85 1010.53 1009.76 1009.80 1010.08 1010.19 1010.26 1010.26 1010.33 1010.20 1009.69 1009.16 1008.76 1008.68 1009.14 1009.74 1010.23 1010.27 1008.59 1008.58 1008.10 1007.50 1007.30 1008.57 1009.87 1010.75 1009.83 1008.82 1007.37 1006.17 1005.20 1005.84 1005.08 1003.84 1002.68 1001.84 1000.88 999.62
1016.09 1014.06 1012.53 1012.24 1013.05 1012.97 1012.70 1011.75 1010.87 1009.84 1009.76 1009.92 1009.88 1010.37 1010.88 1011.17 1010.89 1010.53 1009.92 1009.46 1009.40 1009.86 1010.53 1011.72 1011.28 1009.91 1008.76 1007.94 1007.65 1007.25 1007.84 1009.37 1009.90 1009.62 1008.80 1007.56 1006.12 1005.32 1004.99 1004.45 1003.82 1002.73 1001.18 1000.54 999.32
1017.49 1014.22 1012.43 1012.38 1013.18 1013.26 1012.67 1012.05 1011.30 1010.57 1010.15 1010.20 1010.49 1010.89 1011.31 1011.62 1011.49 1010.76 1010.46 1009.96 1009.82 1010.39 1011.39 1012.33 1012.07 1011.31 1008.64 1007.82 1008.05 1008.05 1007.97 1008.44 1008.77 1008.27 1007.95 1007.11 1005.68 1003.84 1003.89 1003.41 1003.12 1002.10 1000.69 1000.15 998.64
1018.00 1015.14 1013.75 1013.30 1013.67 1013.93 1013.47 1012.79 1012.10 1011.14 1010.81 1011.10 1010.96 1011.17 1011.51 1011.67 1011.51 1011.07 1010.47 1009.95 1009.88 1010.36 1011.77 1012.70 1012.76 1012.39 1011.09 1009.49 1008.99 1008.28 1007.57 1007.36 1008.01 1007.81 1006.78 1005.70 1004.53 1003.41 1003.07 1002.67 1001.93 1000.89 1000.75 999.22 998.53
1018.17 1017.30 1017.07 1015.65 1015.10 1014.97 1014.30 1013.19 1012.42 1012.03 1011.91 1012.19 1012.03 1012.20 1012.26 1012.29 1011.81 1011.20 1010.57 1010.25 1009.99 1010.25 1011.85 1012.89 1012.48 1011.89 1010.52 1009.58 1008.24 1007.01 1006.49 1006.39 1006.18 1006.09 1005.74 1003.73 1003.17 1001.73 1001.92 1001.65 1001.49 1000.89 1000.36 999.45 996.93
1019.47 1019.51 1018.67 1017.65 1016.17 1015.41 1014.41 1013.69 1013.09 1012.81 1012.89 1012.71 1012.86 1012.68 1012.78 1012.77 1012.31 1011.13 1010.74 1010.60 1010.20 1010.15 1011.28 1012.52 1012.22 1011.61 1009.99 1008.64 1007.42 1006.18 1005.51 1005.33 1004.96 1004.31 1004.48 1003.39 1002.34 1001.10 1000.84 1000.32 1000.41 999.33 997.98 997.42 995.87
1020.28 1019.84 1019.67 1018.53 1017.10 1016.02 1015.14 1014.65 1013.96 1013.51 1013.25 1013.16 1013.06 1012.90 1012.75 1012.23 1011.44 1010.69 1010.11 1009.37 1009.44 1010.16 1011.66 1012.72 1012.50 1011.42 1009.49 1007.82 1006.96 1005.80 1005.09 1004.88 1004.88 1004.87 1004.90 1003.96 1002.89 1001.45 1000.84 1000.28 999.56 998.25 997.15 995.67 993.29
Wind_Speed
18 18 17 17 17 17 17 17 17 17 17 17 18 17 17 17 18 8 7 3 5 6 9 9 9 10 9 5 4 3 7 14 19 18 22 19 15 17 12 7 5 5 3 4 15
18 18 18 18 18 18 18 18 18 17 17 18 18 18 17 16 9 9 6 6 6 3 4 6 8 8 5 6 5 6 8 18 17 15 17 17 16 19 15 10 9 7 6 5 10
19 19 19 19 19 18 18 18 18 18 18 18 18 18 16 12 5 2 11 10 8 3 4 7 12 8 6 7 10 7 19 13 16 18 20 21 19 19 17 14 9 7 9 11 9
19 19 20 20 20 19 19 19 18 18 18 18 18 18 16 4 3 4 14 15 11 3 7 8 8 5 4 8 7 17 19 18 19 20 24 26 21 22 16 15 11 7 6 3 16
18 20 20 21 21 21 20 20 19 19 19 18 17 16 10 3 7 9 16 15 7 5 9 8 5 5 7 6 12 19 16 17 19 21 24 25 25 21 22 17 17 13 9 9 14
19 20 21 21 21 21 20 19 19 19 19 18 15 13 4 5 3 12 14 13 13 9 7 8 5 9 5 6 7 8 14 16 15 18 18 20 23 22 23 16 18 14 10 8 9
19 20 22 23 23 22 21 19 18 19 20 17 12 6 6 14 2 2 6 5 6 4 5 5 6 7 9 9 8 11 12 16 14 15 18 11 17 23 17 15 19 16 11 8 8
22 21 23 24 23 23 23 21 20 21 20 14 6 4 8 3 4 7 7 8 6 6 5 8 6 4 5 8 10 8 9 7 2 9 16 8 24 23 10 13 15 14 20 18 10
23 23 25 25 25 24 22 22 23 21 16 8 4 4 7 2 5 3 4 5 6 7 6 9 2 5 6 6 6 6 8 10 15 11 10 10 23 25 15 14 14 15 17 17 14
23 23 26 24 26 23 22 24 15 8 9 7 8 4 7 7 4 1 8 4 6 7 8 7 5 6 4 4 5 8 9 11 13 5 10 14 19 18 20 20 18 16 13 15 19
24 24 25 26 24 19 11 7 2 1 3 8 6 7 15 5 3 3 2 1 8 7 6 7 5 5 11 10 10 12 15 14 15 12 13 11 18 19 13 14 18 20 20 17 19
26 25 25 25 23 16 4 3 7 6 8 12 17 17 13 2 4 10 3 3 5 7 10 6 5 8 13 13 13 10 14 15 13 9 12 13 19 19 15 16 16 13 19 21 13
24 25 25 25 24 6 5 8 5 6 3 12 11 6 3 7 9 8 2 3 5 7 8 6 11 14 16 14 16 12 14 16 19 13 13 12 16 21 20 14 15 17 9 7 11
26 26 24 26 5 4 5 4 7 6 2 6 5 4 4 6 7 13 7 4 2 7 8 6 9 14 13 12 12 15 11 15 17 13 11 5 17 14 19 21 13 14 13 10 10
27 27 27 13 7 6 4 6 4 3 3 6 7 5 3 5 5 6 11 7 7 11 7 11 10 12 12 10 16 15 16 19 15 17 14 12 8 12 7 19 15 12 18 16 12
28 27 24 1 3 9 9 8 3 1 3 5 7 6 8 7 10 4 5 5 9 12 10 10 5 4 4 8 9 13 15 16 12 9 13 15 10 20 11 18 19 14 14 17 19
30 31 17 5 5 11 7 5 2 3 3 5 6 12 11 14 16 6 1 7 5 3 5 7 8 5 5 2 5 7 5 5 5 4 15 13 13 18 12 15 13 12 15 17 17
32 32 5 6 7 9 4 2 2 9 10 11 11 11 13 15 8 11 5 6 6 5 3 3 8 5 3 6 7 9 5 5 5 4 8 19 8 11 10 13 20 22 17 16 13
28 4 2 4 7 3 3 2 1 11 11 11 14 10 9 16 11 9 7 6 5 7 3 6 6 8 14 15 12 4 3 9 5 10 4 6 12 13 11 16 21 23 24 22 24
7 4 3 4 3 3 2 3 3 11 11 9 5 6 12 13 11 9 5 5 11 16 10 7 18 5 12 12 10 7 2 2 5 4 4 5 12 5 14 17 18 20 22 25 24
2 2 1 2 3 1 1 4 13 9 6 6 8 9 10 9 10 11 8 13 13 10 10 7 2 11 10 4 14 13 2 5 4 2 3 4 3 3 8 11 16 18 20 23 21
5 1 4 2 1 3 3 10 14 12 5 5 7 5 8 9 7 12 12 7 15 8 3 3 5 10 20 20 14 13 6 3 2 3 5 4 9 6 4 7 10 18 17 23 20
7 3 3 3 1 3 7 13 14 15 6 3 4 3 2 6 6 5 11 10 9 7 4 2 3 7 9 4 5 2 10 5 5 2 7 5 6 5 2 5 9 12 17 19 19
4 4 3 3 5 7 8 6 12 9 10 14 5 6 5 6 6 8 14 8 9 3 5 6 4 7 8 14 11 14 12 13 4 2 12 12 13 17 5 3 9 13 16 16 21
3 4 4 5 5 10 10 9 10 9 6 9 7 11 8 6 12 11 10 18 14 5 4 2 6 12 18 20 21 19 20 18 17 18 13 22 20 20 9 4 4 13 11 17 29
4 5 6 7 9 8 12 6 9 9 8 9 8 11 11 10 12 19 14 12 10 9 2 5 4 6 17 19 18 20 14 17 18 17 10 12 8 19 9 8 9 18 17 18 25
3 2 3 7 7 7 6 13 12 8 1 6 11 12 13 16 15 16 15 18 18 12 5 1 3 4 6 8 12 9 3 6 8 9 6 5 7 12 11 9 12 19 21 23 17
Wind_Direction
344 341 339 338 336 334 332 331 329 327 324 321 319 319 321 323 317 294 230 225 219 315 313 280 279 258 263 225 260 310 239 237 238 241 260 283 293 300 299 310 302 298 281 171 137
343 340 338 336 334 332 330 328 325 321 318 318 317 319 321 325 299 269 207 184 234 253 284 298 300 247 219 219 223 205 231 236 247 255 262 274 285 288 310 306 302 328 333 83 136
342 339 337 335 332 329 326 323 321 317 315 315 317 320 320 324 284 101 184 221 237 210 242 267 274 286 270 223 228 233 241 253 259 267 278 282 286 308 310 312 273 276 6 334 144
340 337 335 333 330 326 323 321 318 315 313 313 316 320 313 262 16 156 195 224 237 229 274 263 239 235 251 248 260 246 245 238 254 261 275 276 293 289 294 287 286 299 326 3 319
341 337 334 331 328 324 321 319 316 313 311 311 315 321 332 242 241 183 201 222 229 224 240 246 276 271 243 255 241 258 269 265 251 242 247 267 267 271 279 285 293 297 319 320 311
340 336 333 329 325 322 318 314 311 311 308 308 310 314 234 260 122 169 201 218 216 189 328 318 316 320 298 295 285 293 290 280 273 270 262 252 259 263 260 269 271 278 285 288 289
337 336 335 330 325 321 317 312 309 307 303 306 305 281 261 245 261 232 247 337 294 268 219 262 329 4 336 323 296 320 314 301 276 274 274 299 280 252 263 255 264 277 266 259 260
336 334 333 329 323 319 315 311 308 302 300 301 277 277 253 265 243 274 15 308 326 349 311 294 232 212 261 268 291 295 283 288 313 280 258 259 271 266 281 259 262 264 267 266 257
337 334 330 327 323 320 314 307 296 287 283 270 232 209 270 160 207 75 326 284 282 285 262 272 175 206 271 267 296 244 258 258 277 258 268 233 257 263 264 265 255 254 250 264 256
336 329 330 326 325 321 317 295 278 308 252 233 248 250 271 246 105 356 263 307 311 272 275 242 208 201 248 208 242 255 267 269 264 275 250 264 261 269 253 244 245 250 250 249 258
332 329 331 328 324 325 337 341 16 331 241 243 219 238 293 327 50 312 242 312 280 349 312 311 346 272 260 265 260 276 284 290 300 322 324 301 291 291 295 302 265 241 240 247 243
331 329 328 326 323 319 288 254 24 263 301 270 270 268 266 333 282 272 320 294 356 314 306 325 279 282 323 321 320 317 308 297 287 292 296 300 292 293 294 290 291 285 245 232 224
331 328 329 327 321 296 227 273 291 5 317 299 211 229 206 180 238 266 92 341 293 310 318 323 305 320 319 314 310 305 293 297 289 289 269 285 283 293 289 275 285 287 260 260 250
330 328 330 331 319 304 245 318 10 43 300 219 159 173 194 219 245 229 189 153 283 288 287 276 290 299 302 297 304 291 299 307 313 304 272 257 278 270 293 293 292 286 282 262 250
328 328 328 319 300 303 338 354 19 52 26 173 117 152 223 221 272 286 149 169 229 257 263 252 267 271 288 349 347 314 325 310 305 298 307 274 273 279 274 285 282 277 284 292 262
325 324 331 44 201 258 313 334 358 302 262 139 156 203 215 255 287 244 224 224 219 239 246 267 318 23 22 352 327 323 319 289 296 271 269 271 252 273 264 268 281 282 283 280 276
325 318 317 277 255 320 355 326 346 236 261 57 9 1 341 293 280 239 198 275 264 308 345 340 335 319 99 336 292 338 11 334 304 243 257 260 251 252 255 258 276 296 291 281 271
327 314 226 227 275 303 347 344 278 314 20 3 358 321 284 282 11 355 318 317 333 44 7 309 320 332 126 198 243 260 167 173 287 292 302 307 273 265 302 306 1 337 319 283 289
324 297 250 244 242 345 360 321 246 326 15 358 344 326 330 358 358 353 352 323 11 42 358 312 270 317 316 316 325 293 238 218 252 258 253 227 278 275 20 8 0 348 334 330 322
317 283 294 138 69 19 30 276 311 27 359 355 311 310 338 347 347 340 306 336 357 23 19 327 307 298 319 335 306 193 208 120 198 263 297 297 303 317 2 350 344 342 337 324 316
226 248 173 357 101 353 264 283 312 338 57 1 318 297 325 347 328 320 325 325 26 343 357 11 300 299 320 274 292 308 10 61 266 232 229 295 274 34 10 345 337 324 328 318 309
310 356 200 156 9 214 286 307 342 342 36 308 303 324 14 329 323 313 304 312 336 36 12 69 264 285 284 282 294 293 46 94 127 315 244 234 270 139 114 11 341 316 321 309 303
314 268 251 113 24 315 305 349 320 347 332 279 289 19 306 290 305 298 306 302 331 41 38 24 326 305 305 265 11 62 297 262 231 202 246 266 270 266 46 22 325 315 319 295 309
295 339 4 329 6 359 343 327 326 310 329 357 269 284 287 297 302 291 308 295 315 103 159 142 217 244 262 275 288 286 274 281 260 312 274 272 280 276 241 315 309 340 296 305 292
321 16 3 315 332 312 297 294 296 339 12 6 333 330 355 337 315 294 311 316 304 313 98 221 250 231 257 270 270 267 266 272 253 253 261 272 267 271 183 189 243 269 250 273 281
14 3 344 291 290 291 277 343 342 337 340 318 295 334 335 307 287 295 296 291 271 290 333 164 280 278 278 269 267 275 297 285 291 291 13 356 4 351 194 191 213 256 272 260 259
9 343 316 287 298 345 338 340 312 306 11 297 308 314 303 284 282 292 286 280 275 280 60 153 255 280 261 321 327 305 354 326 2 352 2 355 278 320 327 215 235 251 262 264 285